Location: Baia Mare
(47.6567°N, 23.5850°E)
Time: 22:54:13
(UTC+03:00)

ISS - Pass Details

Date: 19 September 2019
Orbit: 411 x 421 km, 51.6° (Epoch: 19 September)

Event Time Altitude Azimuth Distance (km) Brightness Sun altitude
Rises 21:36:07 0° 230° (SW) 2,334 0.3 -21.1°
Reaches altitude 10° 21:38:14 10° 225° (SW) 1,475 -0.8 -21.4°
Enters shadow 21:39:17 19° 218° (SW) 1,064 -1.6 -21.6°
